SL-16 DEB

Satellite information

Favourite Embed

Satellite Type and Status

DEBRISIN ORBIT

Key statistics

Satellite SL-16 DEB at a glance.

Uptime

12042

Days in orbit

Revolutions

≈ 14.2

Per day

Orbit

LEO

Low Earth Orbit

Inclination

71.3

Latest

Satellite identification and parameters

Extended collection of information and parameters for SL-16 DEB.

Object identification

Identified? True

Debris? True

Object name: SL-16 DEB

International designator: 1992-093EN

Object number (NORAD): 22445

Object ID (CCSDS): 22445

Country: COMMONWEALTH OF INDEPENDENT STATES (CIS)

Current information (Y/N): Y

RCS size: SMALL

Orbital parameters

Period: 101.746 minutes

Inclination: 71.2891 deg

SMA: 7219.463 km

Apoapsis: 893.411 km

Periapsis: 789.244 km

RAAN: 30.2068 deg

Eccentricy: 0.0072143

Argument of periapsis: 119.12 deg

Mean anomaly: 241.7172 deg

Mean motion: 14.15290032 rev/day

Mean motion (dot): 0.00001044 rev/day2

B* drag term: 0.0005453785 1/REarth

Two-line elements (TLE)

Creation date: Dec. 12, 2025, 10:14 a.m.

Reference frame: TEME

Reference center: EARTH

Epoch: Dec. 12, 2025, 5:22 a.m. UTC

TLE line 0: 0 SL-16 DEB

TLE line 1: 1 22445U 92093EN 25346.22421563 .00001044 00000-0 54538-3 0 9992

TLE line 2: 2 22445 71.2891 30.2068 0072143 119.1200 241.7172 14.15290032691947

Live tracking on map

Real-time ground track for satellite SL-16 DEB.

In-orbit conjunctions

A list of the most updated potential collisions computed for object SL-16 DEB.

Target Orbit TCA Probability of collision Miss distance Type
DELTA 1 DEB SSO 2025-03-12 14:29:14 0.000280974 63.0 (m) DEBRIS
FENGYUN 1C DEB SSO 2025-03-09 02:29:35 0.0003202538 49.0 (m) DEBRIS
SL-3 DEB LEO 2024-11-10 02:05:07 0.0001761064 913.0 (m) DEBRIS

Associated space launch

Second generation ELING satellite

SL-16 DEB was lifted into orbit during the mission ‘Zenit-2 | Tselina-2 12’, on board a Zenit-2 space rocket.

The launch took place on Dec. 25, 1992, 5:56 a.m. from 45/1.

For more information about the launch, click the button.

Launch to space Zenit-2 | Tselina-2 12
Zenit-2 | Tselina-2 12

Agency: N/A

Status: Launch Successful

Launch date: Dec. 25, 1992, 5:56 a.m. UTC

Rocket: Zenit-2

Launch pad: 45/1

Location: Baikonur Cosmodrome, Republic of Kazakhstan

...

Latest news about this satellite

There are no fresh news available about this satellite. Check back as we update our databases every day.


Newsletter sign-up

Weekly statistics, charts and insights to help you stay on top of the space industry.